Dewpoint
36 37 38 38 40 41 39 40 40 41 41 42 45 46 44 44 46 49 52 53 58 63 59 59 57 55 54 53 52 52 46 45 46 44 47 51 53 52 49 48 46 48 43
37 38 38 39 39 39 39 39 40 39 42 42 44 45 45 43 44 48 49 51 58 59 57 57 57 57 58 57 53 50 46 48 48 49 49 48 50 51 49 48 45 42 43
37 37 38 38 39 38 39 40 41 41 41 41 42 43 44 44 44 45 50 50 55 59 58 58 60 58 57 54 52 50 48 48 49 48 45 45 45 46 47 47 48 48 41
37 36 37 38 38 39 40 40 40 40 40 41 42 42 43 44 45 44 48 50 51 60 59 59 60 58 57 55 54 53 50 47 46 45 41 42 42 46 44 42 42 43 42
36 37 38 39 40 40 39 39 39 38 39 40 40 42 44 46 45 46 47 51 51 59 59 58 60 58 57 55 52 50 47 45 42 40 40 41 41 41 42 43 41 41 44
36 37 39 40 39 40 39 38 39 37 39 38 37 38 40 45 47 47 48 50 52 58 58 57 57 56 54 51 50 48 48 46 44 40 40 41 44 44 43 41 40 40 39
36 38 38 38 39 39 39 37 37 37 38 37 37 37 36 40 42 45 47 49 51 57 57 55 54 53 52 48 48 47 47 47 47 48 45 45 45 45 45 44 43 42 40
35 37 38 39 38 39 37 38 37 37 37 37 37 37 36 37 39 43 47 50 51 57 56 54 53 51 49 46 44 44 45 45 46 45 48 46 46 47 47 45 45 45 43
35 37 37 39 38 38 37 38 38 37 38 38 37 37 36 35 38 41 48 53 54 55 54 52 51 50 47 45 44 45 45 45 46 46 46 44 43 43 44 41 40 39 38
36 37 39 40 39 38 37 38 38 39 37 38 37 37 38 34 37 39 44 47 45 44 46 48 48 47 44 44 46 45 43 41 41 41 40 41 41 40 40 43 40 37 37
38 38 39 40 40 39 39 38 39 39 38 37 38 37 36 35 34 37 40 41 42 41 41 42 43 43 42 43 45 46 44 45 42 41 39 39 40 41 40 41 43 39 38
37 37 38 39 40 39 38 37 38 39 38 37 37 35 36 34 37 36 37 39 41 40 39 39 40 40 40 41 41 40 40 41 41 41 38 37 37 37 38 40 43 42 41
35 36 37 38 38 39 39 39 39 39 38 35 35 33 33 35 35 36 35 36 40 40 40 40 40 40 40 40 40 41 41 44 43 37 36 37 37 38 41 41 41 43 43
33 33 34 34 37 39 39 39 39 39 37 37 34 34 34 34 34 35 35 36 36 38 40 41 41 41 41 41 41 43 44 41 38 36 36 36 38 38 37 37 37 38 38
31 30 30 30 32 36 39 40 37 36 35 36 36 36 34 33 34 35 35 36 37 39 41 41 41 41 41 42 41 39 38 37 35 35 35 35 34 34 35 37 37 37 37
29 28 28 27 27 28 30 34 35 35 34 34 34 35 34 34 34 34 34 34 35 35 38 38 38 39 38 37 37 36 36 36 36 35 35 35 34 34 34 35 35 36 36
31 30 27 27 26 26 25 24 23 27 32 33 33 33 33 33 34 33 33 32 33 33 33 33 33 33 34 34 35 35 35 36 38 37 36 36 35 35 34 34 35 36 35
32 32 29 28 28 27 27 26 24 23 22 22 29 31 32 33 32 32 32 30 28 29 29 30 31 32 32 33 33 33 34 34 34 35 35 36 36 35 34 34 35 35 37
31 29 29 29 28 29 28 26 25 24 21 18 21 26 28 30 30 29 29 25 26 28 28 29 29 30 31 31 32 33 33 33 33 34 34 34 35 35 34 34 35 34 35
32 32 30 28 27 28 28 27 27 25 23 22 17 17 21 24 21 21 22 23 26 28 28 29 29 29 29 30 33 34 33 33 33 33 32 32 33 33 33 35 35 35 35
32 33 31 29 28 28 27 28 27 25 23 22 19 19 27 25 22 20 21 21 25 27 27 27 28 29 29 27 27 30 35 34 30 31 33 32 32 32 33 34 34 36 36
33 33 32 30 29 28 28 26 26 25 23 20 18 17 26 19 20 20 20 21 25 28 28 28 29 29 28 28 29 30 32 33 32 33 34 33 34 34 33 31 31 33 37
37 35 34 31 30 29 28 26 26 27 24 21 16 15 15 17 19 19 20 21 24 27 28 28 29 28 28 29 29 29 30 32 35 36 34 34 34 35 35 34 32 32 34
38 36 34 32 30 29 28 27 27 26 25 20 19 18 19 19 20 21 21 21 22 26 28 28 29 28 28 30 31 31 30 32 34 36 35 35 33 33 35 36 34 33 35
38 36 34 32 31 30 29 28 28 26 23 19 19 19 19 20 20 20 20 21 22 23 27 29 30 29 29 29 29 29 30 31 32 32 34 34 33 33 35 34 35 34 33
40 36 33 32 29 29 30 31 29 26 20 19 20 21 22 23 21 21 22 23 24 25 25 28 29 29 29 29 29 31 31 31 31 31 31 34 33 33 35 33 31 31 32
Lifted_Index
18 18 18 18 17 17 16 16 16 16 16 15 15 15 14 14 14 13 11 7 2 -1 -2 -3 -3 -3 -2 -1 0 2 4 6 9 10 10 10 9 9 10 11 12 12 13
18 18 18 18 18 17 17 17 17 17 16 16 15 15 14 14 14 14 12 9 5 1 -2 -3 -3 -2 -1 -1 1 2 4 7 8 9 10 10 9 9 10 10 11 12 13
19 19 19 19 18 18 18 18 18 18 17 16 15 14 14 14 14 14 13 12 8 2 -1 -2 -2 -1 -1 0 1 2 4 6 7 8 9 10 9 9 9 9 10 12 13
19 19 19 19 18 18 18 18 18 19 18 17 16 14 13 13 13 13 13 12 9 4 1 -1 -1 -1 -0 0 1 2 4 6 7 8 9 9 9 8 8 8 9 11 13
17 18 18 18 18 18 18 18 18 18 18 17 16 14 12 11 11 11 12 13 10 5 2 1 -0 -0 -0 0 1 2 4 6 8 9 9 9 8 8 8 8 8 10 11
16 16 16 16 16 16 16 16 16 16 16 16 14 12 11 9 9 9 10 11 10 6 3 2 1 0 -0 0 1 3 6 8 9 9 8 8 8 8 8 8 8 9 10
14 14 15 15 16 16 16 16 16 16 15 15 14 12 10 9 7 7 8 9 8 5 3 2 1 0 0 1 3 6 9 10 10 9 8 8 8 8 8 8 9 10 11
13 14 14 15 15 16 16 17 16 16 15 14 14 13 11 9 7 5 5 5 5 3 2 1 1 1 1 2 5 8 10 10 10 9 8 8 9 9 10 10 11 12 13
13 13 14 14 15 15 16 16 17 16 15 14 14 13 11 9 7 4 3 2 2 1 1 1 2 2 3 5 8 9 9 10 10 9 9 9 10 11 12 12 12 13 13
13 13 13 14 14 14 15 15 16 16 15 14 13 12 11 9 7 5 3 2 1 1 2 3 4 5 7 8 9 9 8 8 9 9 9 10 11 12 13 14 14 14 14
12 12 13 13 13 13 14 14 15 15 14 13 12 11 11 10 8 7 6 4 3 3 4 6 7 8 10 10 10 9 8 8 9 9 9 10 11 13 14 15 15 15 15
12 12 12 12 12 13 13 14 14 14 14 13 11 10 10 11 10 9 9 8 7 6 7 9 10 11 12 12 11 10 10 9 9 9 10 11 13 14 15 16 16 16 16
12 12 12 12 12 12 12 13 14 14 14 13 12 10 10 11 11 11 11 10 10 9 10 11 11 12 13 13 13 13 12 11 11 11 12 13 15 16 16 16 16 16 16
12 12 12 12 11 11 12 13 13 14 14 14 13 12 11 11 12 12 12 11 11 11 11 11 11 12 13 13 14 14 14 13 13 13 14 15 16 17 17 17 16 16 16
12 12 12 12 12 12 12 12 13 14 15 15 14 14 13 13 13 13 13 12 12 12 12 12 12 12 12 13 14 14 15 15 15 16 16 16 17 17 17 17 17 16 16
11 11 12 12 12 13 13 13 14 14 15 16 16 15 15 15 15 15 14 14 14 13 13 13 13 13 13 13 14 15 15 16 16 16 17 17 17 17 17 17 17 16 16
9 10 12 12 13 13 13 14 14 14 15 16 16 16 16 16 16 16 15 15 15 14 14 14 14 14 14 15 15 15 16 16 16 16 17 17 16 16 17 17 16 16 15
8 9 11 12 12 13 13 14 14 15 15 16 16 17 17 17 17 17 16 15 14 14 14 14 14 15 15 16 16 16 16 16 16 16 16 16 16 16 16 16 16 15 15
8 8 10 11 12 12 13 13 14 15 15 16 16 17 17 17 17 17 16 15 13 13 13 13 14 14 15 16 16 16 16 16 16 16 16 16 16 16 16 16 15 15 15
7 8 9 11 11 12 12 13 13 14 15 15 16 17 17 17 17 17 17 16 14 13 13 14 14 15 15 15 16 16 16 16 16 16 16 16 16 15 15 15 15 14 14
6 7 8 10 11 11 12 12 13 13 14 15 16 17 17 17 17 17 17 16 15 14 14 14 15 15 16 16 16 16 16 16 16 16 16 16 15 15 14 14 14 13 13
5 6 7 9 10 10 11 12 12 13 14 15 16 17 17 18 18 18 18 17 15 14 14 14 15 15 16 16 16 16 16 16 16 16 16 15 15 14 14 14 13 13 13
5 5 6 8 9 10 10 11 12 12 13 14 16 16 17 18 18 18 18 17 16 15 14 14 14 14 15 15 16 16 15 16 16 15 15 14 14 14 14 13 13 12 12
4 5 6 7 8 9 10 11 11 12 13 14 15 16 17 17 17 18 18 18 17 15 14 14 14 14 14 14 15 15 16 16 16 15 15 14 13 13 13 12 13 13 13
4 4 6 7 8 9 10 11 11 12 13 14 15 15 16 17 17 17 18 18 17 16 14 14 14 14 14 14 14 15 15 15 16 15 15 13 12 12 12 12 13 13 13
4 4 6 7 8 10 11 11 12 13 14 14 15 15 16 16 17 17 17 17 17 16 14 14 14 14 14 14 14 14 15 15 15 15 15 13 12 12 12 12 13 13 13